EW3861 Weather Reports


time (UTC)temp
F
wind
direction
speed
knots
gust
knots
rain 1hr
in
rain 24hr
in
rain mn
in
humidity
%
barometer
mb
20200531081602 59 226 0.0 0.9 0.00 0.02 0.00 72 1010.0
20200531080012 60 226 0.0 3.5 0.00 0.02 0.00 72 1010.1
20200531074516 60 237 0.0 2.6 0.00 0.03 0.00 71 1009.9
20200531073026 61 236 0.0 3.5 0.00 0.03 0.00 71 1009.8
20200531071508 61 234 0.0 3.5 0.00 0.03 0.00 71 1009.7
20200531070008 62 202 0.0 2.6 0.00 0.03 0.00 70 1009.6
20200531064510 62 327 0.0 3.5 0.00 0.03 0.00 69 1009.5
20200531063003 62 218 0.0 1.7 0.00 0.03 0.00 68 1009.4
20200531061502 63 141 0.0 7.0 0.00 0.03 0.00 67 1009.3
20200531060001 63 225 0.0 2.6 0.00 0.03 0.00 66 1009.3
20200531054923 63 227 0.0 1.7 0.00 0.03 0.00 67 1009.3
20200531053139 64 227 0.0 1.7 0.00 0.03 0.00 68 1009.2
20200531051626 64 234 0.0 3.5 0.00 0.03 0.00 68 1009.2
20200531050135 63 189 0.0 1.7 0.00 0.03 0.00 68 1009.2
20200531044704 63 137 0.0 2.6 0.00 0.03 0.00 70 1009.3
20200531043400 63 251 0.0 5.2 0.00 0.03 0.00 72 1009.3
20200531041623 62 196 0.0 2.6 0.00 0.03 0.00 75 1009.3
20200531040145 61 32 0.0 2.6 0.00 0.03 0.00 78 1009.3
20200531034902 59 273 0.0 3.5 0.00 0.03 0.03 84 1009.4
20200531033122 58 252 0.0 1.7 0.00 0.03 0.03 89 1009.3
20200531031615 59 266 0.0 0.9 0.00 0.03 0.03 88 1008.4
20200531030115 59 266 0.0 0.0 0.00 0.03 0.03 87 1008.5
20200531024610 60 266 0.0 0.0 0.00 0.03 0.03 86 1008.5
20200531023113 60 266 0.0 0.0 0.00 0.03 0.03 85 1008.4
20200531021543 61 266 0.0 0.0 0.00 0.03 0.03 84 1008.6
20200531020055 62 266 0.0 0.0 0.00 0.03 0.03 83 1008.7
20200531014542 63 266 0.0 0.0 0.00 0.03 0.03 80 1008.6
20200531013028 65 266 0.0 0.0 0.00 0.03 0.03 78 1008.6
20200531011548 66 266 0.0 0.0 0.00 0.03 0.03 74 1008.6
20200531010128 67 266 0.0 0.0 0.00 0.03 0.03 72 1008.4
20200531004533 69 266 0.0 0.0 0.00 0.03 0.03 69 1008.2
20200531003022 71 266 0.0 0.0 0.00 0.03 0.03 64 1008.3
20200531001530 73 266 0.0 0.0 0.00 0.03 0.03 59 1008.2
20200531000022 74 266 0.0 0.0 0.00 0.03 0.03 55 1008.2
20200530234557 74 266 0.0 0.9 0.00 0.03 0.03 50 1008.2
20200530233031 75 266 0.0 1.7 0.00 0.03 0.03 49 1008.1
20200530231535 76 299 0.0 0.9 0.00 0.03 0.03 49 1008.0
20200530230042 76 209 0.0 3.5 0.00 0.03 0.03 48 1007.9
20200530224526 77 178 0.0 3.5 0.00 0.03 0.03 47 1007.7
20200530223053 78 277 0.0 6.1 0.00 0.03 0.03 47 1007.6
20200530221551 78 241 0.0 4.3 0.00 0.03 0.03 45 1007.5
20200530220053 80 229 0.0 6.1 0.00 0.03 0.03 45 1007.4
20200530214626 81 184 0.0 4.3 0.00 0.03 0.03 43 1007.3
20200530213043 81 231 0.9 4.3 0.00 0.03 0.03 42 1007.3
20200530211540 80 219 0.0 8.7 0.00 0.03 0.03 44 1007.3
20200530210031 82 227 1.7 6.1 0.00 0.03 0.03 43 1007.3
20200530204604 81 246 0.9 5.2 0.00 0.03 0.03 41 1007.5
20200530203048 81 219 1.7 7.0 0.00 0.03 0.03 42 1007.3
20200530201525 82 226 1.7 7.0 0.00 0.03 0.03 43 1007.3
20200530200022 82 229 0.9 7.0 0.00 0.03 0.03 45 1007.2
20200530194511 81 225 0.0 2.6 0.00 0.03 0.03 45 1007.3
20200530193022 81 197 1.7 8.7 0.00 0.03 0.03 45 1007.3
20200530191520 81 207 2.6 7.0 0.00 0.03 0.03 45 1007.3
20200530190006 81 219 2.6 7.8 0.00 0.03 0.03 48 1007.5
20200530184500 79 81 0.9 8.7 0.00 0.03 0.03 50 1007.4
20200530183155 79 219 2.6 7.8 0.00 0.03 0.03 53 1007.5
20200530181604 78 225 3.5 8.7 0.00 0.03 0.03 51 1007.7
20200530180219 78 215 0.9 7.0 0.00 0.03 0.03 56 1007.7
20200530174644 78 221 1.7 9.6 0.00 0.03 0.03 55 1007.8
20200530173134 78 236 0.9 7.8 0.00 0.03 0.03 56 1008.0
20200530171720 78 245 1.7 7.0 0.00 0.03 0.03 57 1007.9
20200530170103 77 214 1.7 5.2 0.00 0.03 0.03 58 1007.9
20200530164637 77 279 2.6 7.0 0.00 0.03 0.03 58 1008.0
20200530163135 76 273 0.9 4.3 0.00 0.03 0.03 62 1008.1
20200530161620 76 234 1.7 8.7 0.00 0.03 0.03 62 1008.3
20200530160045 75 218 2.6 8.7 0.00 0.03 0.03 63 1008.5
20200530154627 75 282 1.7 7.0 0.00 0.03 0.03 66 1008.6
20200530153139 74 245 1.7 6.1 0.00 0.03 0.03 69 1008.6
20200530151557 74 230 0.0 7.8 0.00 0.03 0.03 71 1008.7
20200530150042 73 94 0.0 5.2 0.00 0.03 0.03 74 1008.6
20200530144542 73 228 0.0 3.5 0.00 0.03 0.03 76 1008.5
20200530143054 72 189 1.7 7.8 0.00 0.03 0.03 77 1008.6
20200530141534 71 189 0.0 5.2 0.00 0.03 0.03 82 1008.6
20200530140039 71 220 0.9 5.2 0.00 0.03 0.03 87 1008.6
20200530134525 70 209 1.7 5.2 0.00 0.03 0.03 90 1008.7
20200530133017 69 291 0.9 5.2 0.00 0.03 0.03 93 1008.7
20200530131533 68 235 0.0 7.0 0.00 0.03 0.03 96 1008.7
20200530130018 68 210 1.7 7.0 0.00 0.03 0.03 97 1008.8
20200530124509 67 235 0.0 4.3 0.00 0.03 0.03 97 1008.8
20200530123006 66 217 0.9 4.3 0.00 0.03 0.03 97 1008.8
20200530121514 66 215 0.9 4.3 0.00 0.03 0.03 97 1008.8
20200530120004 65 211 0.0 3.5 0.00 0.03 0.03 97 1008.7
20200530114523 65 211 0.0 4.3 0.00 0.03 0.03 97 1008.9
20200530113005 64 224 0.0 2.6 0.00 0.03 0.03 97 1008.8
20200530111503 64 219 0.0 4.3 0.00 0.03 0.03 97 1008.6
20200530110002 64 243 0.0 2.6 0.00 0.03 0.03 97 1008.7
20200530104506 64 248 0.0 3.5 0.00 0.03 0.03 97 1008.6
20200530103001 64 215 0.9 5.2 0.00 0.03 0.03 97 1008.4
20200530101706 64 213 0.9 4.3 0.00 0.03 0.03 97 1008.4
20200530100159 64 288 0.0 3.5 0.01 0.03 0.03 97 1008.2
20200530094729 64 221 1.7 4.3 0.02 0.03 0.03 97 1007.9
20200530093139 64 245 0.0 4.3 0.02 0.03 0.03 97 1007.9
20200530091728 64 229 0.9 4.3 0.02 0.03 0.03 97 1007.7
20200530090115 65 236 0.0 5.2 0.01 0.02 0.02 97 1008.3
20200530084611 64 223 2.6 8.7 0.00 0.07 0.01 97 1008.4
20200530083154 64 227 1.7 6.1 0.00 0.07 0.01 97 1008.6